Regional Weather Roundup
Issued by NWS

Home | Current Version | Previous Version | Graphics & Text | Print | Product List | Glossary On
Versions: 1 2 3 4 5 6 7 8 9 10 11 12 13 14 15 16 17 18 19 20 21 22 23 24 25 26 27 28 29 30 31 32 33 34 35 36 37 38 39 40 41 42 43 44 45 46 47 48 49 50
000
ASUS43 KLOT 180621
RWRIL

ILLINOIS REGIONAL WEATHER ROUNDUP
NATIONAL WEATHER SERVICE CHICAGO/ROMEOVILLE IL
100 AM CDT SAT APR 18 2015

NOTE: "FAIR" INDICATES FEW OR NO CLOUDS BELOW 12,000 FEET WITH NO
SIGNIFICANT WEATHER AND/OR OBSTRUCTIONS TO VISIBILITY.

* THESE STATIONS ARE NOT UNDER NWS QUALITY CONTROL. THEY ALSO MAY NOT
  REPORT WEATHER SUCH AS PRECIPITATION OR FOG.

ILZ001-002-007-009-015-016-024-180700-
NORTHWEST ILLINOIS

CITY           SKY/WX    TMP DP  RH WIND       PRES   REMARKS
MOLINE         FAIR      54  47  77 CALM      30.00S
6HR MIN TEMP:  53; 6HR MAX TEMP:  75;

STERLING*      FAIR      55  46  71 CALM      30.02S
SAVANNA*       FAIR      56  50  80 NE3       30.01S
$$

ILZ003-004-008-010-011-017-018-180700-
NORTH CENTRAL ILLINOIS

CITY           SKY/WX    TMP DP  RH WIND       PRES   REMARKS
ROCKFORD       FAIR      58  49  72 CALM      30.04R
6HR MIN TEMP:  58; 6HR MAX TEMP:  75;

FREEPORT*      FAIR      56  46  69 CALM      30.03S
ROCHELLE*      FAIR      57  46  67 CALM      30.02S
DE KALB*       MOCLDY    61  46  56 W5        30.03R
PERU*          FAIR      61  48  62 S3        30.02S
$$

ILZ005-006-012>014-019>023-180700-
NORTHEAST ILLINOIS

CITY           SKY/WX    TMP DP  RH WIND       PRES   REMARKS
CHICAGO-OHARE  MOCLDY    61  46  57 CALM      30.00S
6HR MIN TEMP:  58; 6HR MAX TEMP:  74;

CHICAGO-MIDWAY MOCLDY    65  48  54 SW6       30.01S
6HR MIN TEMP:  65; 6HR MAX TEMP:  73;

AURORA         FAIR      57  47  69 CALM      30.02R
6HR MIN TEMP:  55; 6HR MAX TEMP:  74;

LANSING*       FAIR      58  45  62 SW5       30.02R
JOLIET*        MOCLDY    58  52  80 CALM      30.02R
WAUKEGAN       FAIR      51  44  77 SW3       30.00R HAZE
6HR MIN TEMP:  46; 6HR MAX TEMP:  60;

DUPAGE AIRPORT CLOUDY    59  49  69 CALM      30.01R
6HR MIN TEMP:  56; 6HR MAX TEMP:  72;

KANKAKEE*      FAIR      56  49  76 SW7       30.04R
WHEELING       FAIR      57  46  66 CALM      30.02R
6HR MIN TEMP:  56; 6HR MAX TEMP:  69;

MORRIS*        FAIR      58  47  67 CALM      30.00S
ROMEOVILLE*    FAIR      59  47  66 S7        30.02R
NORTHERLY ISL    N/A     67  45  45 SW5         N/A
$$

LMZ740>746-180700-
SOUTHERN LAKE MICHIGAN

STATION/POSITION SKY/WX   TEMP    WIND        PRES    VSBY  WAVE
                          AIR SEA DIR/SP/G                  HT/PER
                          (F)     (DEG/KT/KT) (MB)    (MI)  (FT/S)
HARRISON CRIB              66     170/ 12/ 14   N/A
BURNHAM HARBOR             66     210/  5/  6   N/A
CALUMET HARBOR             63     200/  5/  6   N/A
BURNS HARBOR               66     190/  9/ 10 1016.6
MICHIGAN CITY              66     130/  9/ 10   N/A
MICHIGAN CITY 6N           55 47                N/A           0
$$

ILZ025>027-034>036-040-047-049-050-058-095>099-180700-
WEST-CENTRAL ILLINOIS

CITY           SKY/WX    TMP DP  RH WIND       PRES   REMARKS
QUINCY         FAIR      64  52  64 S6        30.01S
GALESBURG*     MOCLDY    58  51  78 CALM      30.01S
MACOMB*        FAIR      56  49  76 CALM      30.04R
JACKSONVILLE*  FAIR      62  54  77 S3        30.02S
PITTSFIELD*    FAIR      62  54  76 CALM      30.03R
$$

ILZ028>032-037-038-041>044-048-051>054-059>061-180700-
CENTRAL ILLINOIS

CITY           SKY/WX    TMP DP  RH WIND       PRES   REMARKS
PONTIAC        MOCLDY    60  51  72 S5        30.04S
BLOOMINGTON    FAIR      60  53  77 S6        30.05S
DECATUR        FAIR      57  51  80 SE3       30.04S
PEORIA         FAIR      67  52  58 S5        30.02R
6HR MIN TEMP:  66; 6HR MAX TEMP:  79;

LACON*         CLOUDY    64  53  67 S3        30.01S
LINCOLN*       FAIR      59  51  74 CALM      30.02R
SPRINGFIELD    FAIR      60  52  74 CALM      30.03R
6HR MIN TEMP:  59; 6HR MAX TEMP:  77;

TAYLORVILLE    FAIR      59  54  82 SE3       30.03S
$$

ILZ033-039-045-046-055>057-062-063-180700-
EAST-CENTRAL ILLINOIS

CITY           SKY/WX    TMP DP  RH WIND       PRES   REMARKS
CHAMPAIGN      FAIR      59  48  67 S5        30.05R
DANVILLE*      FAIR      56  49  76 SW3       30.03R
RANTOUL*       CLOUDY    60  52  74 CALM      30.05R
MATTOON        FAIR      58  54  86 CALM      30.04R
PARIS*         FAIR      55  52  90 CALM      30.06S
$$

ILZ079-100>102-180700-
SOUTHWEST ILLINOIS

CITY           SKY/WX    TMP DP  RH WIND       PRES   REMARKS
ALTON          FAIR      59  57  92 CALM      30.03R
BELLEVILLE     FAIR      59  59 100 N1        30.01F
CAHOKIA*       FAIR      64  57  78 S3        30.02S
SPARTA*        FAIR      59  57  91 E3        30.03F
$$

ILZ064>066-069>071-074>076-080>082-084>086-088>090-092>094-180700-
SOUTH-CENTRAL ILLINOIS

CITY           SKY/WX    TMP DP  RH WIND       PRES   REMARKS
CARBONDALE     FAIR      60  58  92 CALM      30.02F
6HR MIN TEMP:  60; 6HR MAX TEMP:  73;

CAIRO*         FAIR      61  61 100 CALM      30.01F FOG
EFFINGHAM*     FAIR      55  51  88 CALM      30.05S
MARION         FAIR      59  57  94 CALM      30.04S FOG
MT. VERNON     FAIR      54  48  82 CALM      30.04F
CENTRALIA*     FAIR      56  54  93 SE3       30.03F
SALEM*         FAIR      65  55  69 CALM      30.04F
METROPOLIS*    FAIR      62  62 100 CALM      30.01F FOG
$$

ILZ067-068-072-073-078-083-087-091-180700-
SOUTHEAST ILLINOIS

CITY           SKY/WX    TMP DP  RH WIND       PRES   REMARKS
LAWRENCEVILLE  FAIR      58  55  90 CALM      30.04S
FLORA*         FAIR      56  55  94 CALM      30.04S
FAIRFIELD*     FAIR      58  56  93 CALM      30.03S
HARRISBURG*    FAIR      62  60  94 CALM      30.04F
ROBINSON*      FAIR      55  52  91 CALM      30.06S
CARMI*         FAIR      57  53  87 CALM      30.03F FOG
$$

ABBREVIATIONS USED IN REMARKS
   TC - TEMPERATURE IN CELSIUS
  WCI - WIND CHILL INDEX
   HX - HEAT INDEX
  VSB - VISIBILITY
$$




USA.gov is the U.S. government's official web portal to all federal, state and local government web resources and services.